KLM277Y ENBR-ENAL

Flight info

Callsign KLM277Y
Flight time 0h 39m
Altitude 27000
Route OLDAS DCT TUMIM
Aircraft A319/M-SDE3FGHIRWY/LB1

Departure

Time 2026-05-07 16:38
Airport Bergen Airport, Flesland (ENBR)

Arrival

Time 2026-05-07 17:18
Airport Ålesund Airport (ENAL)
Time Latitude Longitude Altitude Speed Heading
2026-05-07 16:13 60.28863 5.22557 174 ft 0 kts 60°
2026-05-07 16:30 60.28857 5.22537 174 ft 4 kts 68°
2026-05-07 16:30 60.28851 5.22485 174 ft 4 kts 82°
2026-05-07 16:31 60.28848 5.22456 174 ft 0 kts 75°
2026-05-07 16:34 60.28850 5.22459 174 ft 1 kts 66°
2026-05-07 16:34 60.28863 5.22458 174 ft 4 kts 353°
2026-05-07 16:35 60.28912 5.22405 174 ft 12 kts 315°
2026-05-07 16:35 60.28986 5.22252 174 ft 20 kts 346°
2026-05-07 16:35 60.29155 5.22201 175 ft 29 kts 350°
2026-05-07 16:35 60.29377 5.22128 176 ft 36 kts 347°
2026-05-07 16:36 60.29608 5.22048 171 ft 27 kts 352°
2026-05-07 16:36 60.29810 5.21980 169 ft 32 kts 352°
2026-05-07 16:36 60.30044 5.21912 169 ft 36 kts 351°
2026-05-07 16:36 60.30302 5.21826 170 ft 40 kts 351°
2026-05-07 16:37 60.30578 5.21744 176 ft 28 kts 351°
2026-05-07 16:37 60.30659 5.21541 178 ft 20 kts 256°
2026-05-07 16:37 60.30621 5.21408 179 ft 12 kts 187°
2026-05-07 16:37 60.30488 5.21444 172 ft 42 kts 170°
2026-05-07 16:38 60.29979 5.21606 175 ft 103 kts 171°
2026-05-07 16:38 60.29131 5.21884 179 ft 151 kts 171°
2026-05-07 16:38 60.28012 5.22252 328 ft 179 kts 170°
2026-05-07 16:38 60.26811 5.22656 1147 ft 171 kts 174°
2026-05-07 16:39 60.25647 5.23013 1920 ft 168 kts 172°
2026-05-07 16:39 60.24439 5.23479 2296 ft 188 kts 172°
2026-05-07 16:39 60.23085 5.23937 2689 ft 206 kts 173°
2026-05-07 16:39 60.21600 5.24359 3106 ft 228 kts 174°
2026-05-07 16:40 60.19934 5.24843 3586 ft 253 kts 173°
2026-05-07 16:40 60.18162 5.25432 4550 ft 259 kts 172°
2026-05-07 16:40 60.16376 5.26060 5526 ft 263 kts 172°
2026-05-07 16:40 60.14565 5.26699 6295 ft 265 kts 172°
2026-05-07 16:41 60.12731 5.27245 7271 ft 267 kts 180°
2026-05-07 16:41 60.10925 5.26518 8158 ft 268 kts 207°
2026-05-07 16:41 60.09477 5.24183 9077 ft 270 kts 234°
2026-05-07 16:41 60.08726 5.20764 10012 ft 272 kts 259°
2026-05-07 16:42 60.08487 5.16999 10905 ft 273 kts 271°
2026-05-07 16:42 60.08912 5.13303 11810 ft 276 kts 295°
2026-05-07 16:42 60.10094 5.10213 12517 ft 291 kts 317°
2026-05-07 16:42 60.11995 5.08340 12768 ft 322 kts 342°
2026-05-07 16:43 60.14243 5.07286 13204 ft 337 kts 344°
2026-05-07 16:43 60.16517 5.06251 13926 ft 342 kts 343°
2026-05-07 16:43 60.18849 5.05182 14627 ft 345 kts 342°
2026-05-07 16:43 60.21197 5.04087 15344 ft 348 kts 342°
2026-05-07 16:44 60.23560 5.02966 16046 ft 351 kts 341°
2026-05-07 16:44 60.25948 5.01843 16750 ft 355 kts 342°
2026-05-07 16:44 60.28436 5.01309 17446 ft 366 kts 352°
2026-05-07 16:44 60.31016 5.01657 18155 ft 375 kts 358°
2026-05-07 16:45 60.33621 5.02190 18773 ft 378 kts 358°
2026-05-07 16:45 60.36253 5.02723 19360 ft 382 kts 357°
2026-05-07 16:45 60.38908 5.03256 19959 ft 385 kts 357°
2026-05-07 16:45 60.41592 5.03788 20541 ft 389 kts 357°
2026-05-07 16:46 60.44294 5.04321 21146 ft 392 kts 356°
2026-05-07 16:46 60.47012 5.04856 21731 ft 395 kts 356°
2026-05-07 16:46 60.49761 5.05401 22298 ft 398 kts 356°
2026-05-07 16:46 60.52525 5.05949 22854 ft 401 kts 356°
2026-05-07 16:47 60.55317 5.06507 23395 ft 404 kts 356°
2026-05-07 16:47 60.58124 5.07077 23879 ft 407 kts 356°
2026-05-07 16:47 60.60958 5.07650 24293 ft 411 kts 356°
2026-05-07 16:47 60.63815 5.08230 24727 ft 414 kts 356°
2026-05-07 16:48 60.66695 5.08815 25152 ft 417 kts 356°
2026-05-07 16:48 60.69595 5.09407 25568 ft 421 kts 356°
2026-05-07 16:48 60.72521 5.10003 25990 ft 424 kts 357°
2026-05-07 16:48 60.75476 5.10608 26396 ft 427 kts 357°
2026-05-07 16:49 60.78445 5.11222 26794 ft 431 kts 357°
2026-05-07 16:49 60.81403 5.11833 27063 ft 434 kts 357°
2026-05-07 16:49 60.84384 5.12455 27118 ft 429 kts 358°
2026-05-07 16:49 60.87340 5.13070 27104 ft 427 kts 357°
2026-05-07 16:50 60.90296 5.13678 27108 ft 426 kts 358°
2026-05-07 16:50 60.93244 5.14281 27105 ft 426 kts 358°
2026-05-07 16:50 60.96191 5.14881 27124 ft 425 kts 358°
2026-05-07 16:50 60.99138 5.15484 27105 ft 425 kts 358°
2026-05-07 16:51 61.02077 5.16095 27110 ft 425 kts 358°
2026-05-07 16:51 61.05022 5.16882 27109 ft 431 kts
2026-05-07 16:51 61.07930 5.18563 27119 ft 439 kts 14°
2026-05-07 16:51 61.10723 5.21245 27118 ft 447 kts 22°
2026-05-07 16:52 61.13448 5.24352 27116 ft 447 kts 22°
2026-05-07 16:52 61.16175 5.27450 27114 ft 447 kts 22°
2026-05-07 16:52 61.17976 5.29490 27110 ft 447 kts 22°
2026-05-07 16:52 61.20703 5.32576 27116 ft 446 kts 22°
2026-05-07 16:53 61.23430 5.35663 27118 ft 446 kts 23°
2026-05-07 16:53 61.26160 5.38760 27111 ft 446 kts 23°
2026-05-07 16:53 61.28884 5.41861 27112 ft 446 kts 23°
2026-05-07 16:53 61.31606 5.44968 27112 ft 446 kts 23°
2026-05-07 16:54 61.34324 5.48082 27117 ft 446 kts 23°
2026-05-07 16:54 61.37044 5.51207 27111 ft 446 kts 23°
2026-05-07 16:54 61.39755 5.54327 27107 ft 445 kts 24°
2026-05-07 16:54 61.42472 5.57459 27113 ft 445 kts 24°
2026-05-07 16:55 61.45181 5.60590 27110 ft 445 kts 24°
2026-05-07 16:55 61.47889 5.63728 27106 ft 445 kts 24°
2026-05-07 16:55 61.50591 5.66865 27103 ft 445 kts 24°
2026-05-07 16:55 61.53298 5.70010 27116 ft 445 kts 24°
2026-05-07 16:56 61.56005 5.73160 27115 ft 445 kts 24°
2026-05-07 16:56 61.58710 5.76316 26832 ft 443 kts 24°
2026-05-07 16:56 61.64073 5.82586 25482 ft 441 kts 25°
2026-05-07 16:57 61.66780 5.85764 24877 ft 438 kts 25°
2026-05-07 16:57 61.69423 5.88879 24328 ft 434 kts 25°
2026-05-07 16:57 61.72010 5.91937 23769 ft 428 kts 25°
2026-05-07 16:57 61.74632 5.94851 23198 ft 422 kts 22°
2026-05-07 16:58 61.77262 5.97487 22715 ft 414 kts 20°
2026-05-07 16:58 61.79879 5.99932 21692 ft 408 kts 18°
2026-05-07 16:58 61.82459 6.02279 21527 ft 397 kts 17°
2026-05-07 16:58 61.84945 6.04562 21353 ft 385 kts 18°
2026-05-07 16:59 61.87382 6.06836 20928 ft 380 kts 18°
2026-05-07 16:59 61.89788 6.09121 20494 ft 377 kts 19°
2026-05-07 16:59 61.92171 6.11415 20056 ft 375 kts 19°
2026-05-07 16:59 61.94541 6.13714 19613 ft 373 kts 19°
2026-05-07 17:00 61.96893 6.16011 19153 ft 371 kts 20°
2026-05-07 17:00 61.99229 6.18300 18705 ft 369 kts 20°
2026-05-07 17:00 62.01560 6.20582 18191 ft 368 kts 20°
2026-05-07 17:00 62.03870 6.22836 17711 ft 364 kts 20°
2026-05-07 17:01 62.06170 6.25078 17220 ft 362 kts 20°
2026-05-07 17:01 62.08451 6.27305 16745 ft 359 kts 21°
2026-05-07 17:01 62.10714 6.29519 16260 ft 357 kts 21°
2026-05-07 17:01 62.12959 6.31725 15791 ft 354 kts 21°
2026-05-07 17:02 62.15192 6.33928 15304 ft 353 kts 22°
2026-05-07 17:02 62.17414 6.36127 14824 ft 351 kts 22°
2026-05-07 17:02 62.19615 6.38308 14341 ft 348 kts 22°
2026-05-07 17:02 62.21812 6.40486 13862 ft 346 kts 23°
2026-05-07 17:03 62.23998 6.42649 13348 ft 344 kts 22°
2026-05-07 17:03 62.26164 6.44792 12875 ft 342 kts 22°
2026-05-07 17:03 62.28316 6.46927 12409 ft 338 kts 23°
2026-05-07 17:03 62.30420 6.49023 11932 ft 338 kts 23°
2026-05-07 17:04 62.32542 6.51142 11461 ft 335 kts 23°
2026-05-07 17:04 62.34644 6.53245 11003 ft 332 kts 23°
2026-05-07 17:04 62.36741 6.55308 10638 ft 327 kts 22°
2026-05-07 17:04 62.38777 6.57249 10513 ft 314 kts 21°
2026-05-07 17:05 62.40750 6.59103 10386 ft 304 kts 21°
2026-05-07 17:05 62.42667 6.60896 10191 ft 297 kts 21°
2026-05-07 17:05 62.44546 6.62656 10098 ft 293 kts 21°
2026-05-07 17:05 62.46406 6.64476 9949 ft 295 kts 23°
2026-05-07 17:06 62.48261 6.66439 9518 ft 295 kts 25°
2026-05-07 17:06 62.50093 6.68454 9050 ft 298 kts 26°
2026-05-07 17:06 62.51924 6.70496 8857 ft 293 kts 26°
2026-05-07 17:06 62.53732 6.72506 8573 ft 292 kts 26°
2026-05-07 17:07 62.55557 6.74403 8315 ft 290 kts 19°
2026-05-07 17:07 62.57516 6.75313 7936 ft 290 kts
2026-05-07 17:07 62.59580 6.74923 7107 ft 306 kts 344°
2026-05-07 17:07 62.61598 6.73175 6247 ft 320 kts 333°
2026-05-07 17:08 62.63653 6.71068 5462 ft 351 kts 333°
2026-05-07 17:08 62.65884 6.68346 5309 ft 382 kts 320°
2026-05-07 17:08 62.67679 6.64163 6243 ft 373 kts 309°
2026-05-07 17:08 62.69235 6.59812 6764 ft 352 kts 298°
2026-05-07 17:09 62.69998 6.54849 5964 ft 347 kts 273°
2026-05-07 17:09 62.69643 6.49696 5060 ft 347 kts 245°
2026-05-07 17:09 62.68206 6.45660 4740 ft 331 kts 219°
2026-05-07 17:09 62.66419 6.42728 4613 ft 314 kts 214°
2026-05-07 17:10 62.64687 6.40077 4631 ft 295 kts 214°
2026-05-07 17:10 62.63208 6.37185 4632 ft 281 kts 233°
2026-05-07 17:10 62.62488 6.33371 4588 ft 272 kts 259°
2026-05-07 17:10 62.62646 6.29323 4258 ft 269 kts 289°
2026-05-07 17:11 62.63659 6.26006 3942 ft 264 kts 318°
2026-05-07 17:11 62.65261 6.24211 3628 ft 259 kts 348°
2026-05-07 17:11 62.67023 6.24244 3376 ft 250 kts 14°
2026-05-07 17:11 62.68527 6.25741 3322 ft 227 kts 38°
2026-05-07 17:12 62.69565 6.28181 3335 ft 219 kts 60°
2026-05-07 17:12 62.70102 6.31246 3338 ft 217 kts 83°
2026-05-07 17:12 62.70086 6.34390 3332 ft 202 kts 103°
2026-05-07 17:12 62.69597 6.37181 3330 ft 195 kts 123°
2026-05-07 17:13 62.68729 6.39399 3332 ft 191 kts 142°
2026-05-07 17:13 62.67592 6.40847 3333 ft 190 kts 161°
2026-05-07 17:13 62.66313 6.41449 3337 ft 189 kts 175°
2026-05-07 17:13 62.65015 6.41744 3270 ft 191 kts 179°
2026-05-07 17:14 62.63727 6.41278 3063 ft 188 kts 201°
2026-05-07 17:14 62.62608 6.39826 2883 ft 188 kts 223°
2026-05-07 17:14 62.61804 6.37598 2651 ft 188 kts 244°
2026-05-07 17:14 62.61247 6.35028 2409 ft 188 kts 247°
2026-05-07 17:15 62.60706 6.32455 2199 ft 183 kts 248°
2026-05-07 17:15 62.60209 6.30055 2064 ft 169 kts 248°
2026-05-07 17:15 62.59745 6.27764 1751 ft 162 kts 248°
2026-05-07 17:15 62.59299 6.25619 1574 ft 151 kts 249°
2026-05-07 17:16 62.58864 6.23632 1352 ft 140 kts 247°
2026-05-07 17:16 62.58445 6.21765 1028 ft 135 kts 249°
2026-05-07 17:16 62.58032 6.19958 763 ft 133 kts 249°
2026-05-07 17:16 62.57619 6.18168 612 ft 132 kts 249°
2026-05-07 17:17 62.57200 6.16382 473 ft 133 kts 248°
2026-05-07 17:17 62.56811 6.14578 301 ft 132 kts 250°
2026-05-07 17:17 62.56427 6.12784 106 ft 131 kts 250°
2026-05-07 17:17 62.56078 6.11143 84 ft 98 kts 244°
2026-05-07 17:18 62.55853 6.10144 58 ft 49 kts 244°
2026-05-07 17:18 62.55780 6.09771 52 ft 12 kts 214°
2026-05-07 17:18 62.55773 6.09869 52 ft 13 kts 60°
2026-05-07 17:18 62.55836 6.10081 57 ft 18 kts 64°
2026-05-07 17:19 62.55895 6.10349 59 ft 21 kts 63°
2026-05-07 17:19 62.55947 6.10652 70 ft 23 kts 91°
2026-05-07 17:19 62.55912 6.10991 82 ft 25 kts 105°
2026-05-07 17:19 62.55930 6.11271 83 ft 22 kts 64°
2026-05-07 17:20 62.55949 6.11436 79 ft 8 kts 133°
2026-05-07 17:20 62.55910 6.11483 80 ft 0 kts 154°